Year,Month,Day,Hour,Minute,Value (Times are PST for temperature in C)
2015,03,08,00,00,6.70
2015,03,08,00,01,6.70
2015,03,08,00,02,6.70
2015,03,08,00,03,6.70
2015,03,08,00,04,6.70
2015,03,08,00,05,6.70
2015,03,08,00,06,6.70
2015,03,08,00,07,6.70
2015,03,08,00,08,6.70
2015,03,08,00,09,6.70
2015,03,08,00,10,6.70
2015,03,08,00,11,6.70
2015,03,08,00,12,6.70
2015,03,08,00,13,6.70
2015,03,08,00,14,6.60
2015,03,08,00,15,6.60
2015,03,08,00,16,6.60
2015,03,08,00,17,6.60
2015,03,08,00,18,6.60
2015,03,08,00,19,6.60
2015,03,08,00,20,6.60
2015,03,08,00,21,6.60
2015,03,08,00,22,6.60
2015,03,08,00,23,6.60
2015,03,08,00,24,6.60
2015,03,08,00,25,6.60
2015,03,08,00,26,6.60
2015,03,08,00,27,6.60
2015,03,08,00,28,6.60
2015,03,08,00,29,6.60
2015,03,08,00,30,6.60
2015,03,08,00,31,6.60
2015,03,08,00,32,6.60
2015,03,08,00,33,6.60
2015,03,08,00,34,6.60
2015,03,08,00,35,6.60
2015,03,08,00,36,6.60
2015,03,08,00,37,6.60
2015,03,08,00,38,6.60
2015,03,08,00,39,6.60
2015,03,08,00,40,6.70
2015,03,08,00,41,6.70
2015,03,08,00,42,6.70
2015,03,08,00,43,6.70
2015,03,08,00,44,6.70
2015,03,08,00,45,6.60
2015,03,08,00,46,6.60
2015,03,08,00,47,6.60
2015,03,08,00,48,6.60
2015,03,08,00,49,6.60
2015,03,08,00,50,6.60
2015,03,08,00,51,6.60
2015,03,08,00,52,6.60
2015,03,08,00,53,6.60
2015,03,08,00,54,6.70
2015,03,08,00,55,6.70
2015,03,08,00,56,6.70
2015,03,08,00,57,6.60
2015,03,08,00,58,6.60
2015,03,08,00,59,6.60
2015,03,08,01,00,6.60
2015,03,08,01,01,6.60
2015,03,08,01,02,6.60
2015,03,08,01,03,6.60
2015,03,08,01,04,6.60
2015,03,08,01,05,6.60
2015,03,08,01,06,6.60
2015,03,08,01,07,6.60
2015,03,08,01,08,6.60
2015,03,08,01,09,6.70
2015,03,08,01,10,6.70
2015,03,08,01,11,6.70
2015,03,08,01,12,6.70
2015,03,08,01,13,6.70
2015,03,08,01,14,6.70
2015,03,08,01,15,6.70
2015,03,08,01,16,6.70
2015,03,08,01,17,6.70
2015,03,08,01,18,6.70
2015,03,08,01,19,6.70
2015,03,08,01,20,6.70
2015,03,08,01,21,6.70
2015,03,08,01,22,6.70
2015,03,08,01,23,6.70
2015,03,08,01,24,6.70
2015,03,08,01,25,6.70
2015,03,08,01,26,6.60
2015,03,08,01,27,6.60
2015,03,08,01,28,6.60
2015,03,08,01,29,6.60
2015,03,08,01,30,6.60
2015,03,08,01,31,6.50
2015,03,08,01,32,6.50
2015,03,08,01,33,6.50
2015,03,08,01,34,6.50
2015,03,08,01,35,6.50
2015,03,08,01,36,6.50
2015,03,08,01,37,6.50
2015,03,08,01,38,6.60
2015,03,08,01,39,6.60
2015,03,08,01,40,6.60
2015,03,08,01,41,6.60
2015,03,08,01,42,6.70
2015,03,08,01,43,6.70
2015,03,08,01,44,6.70
2015,03,08,01,45,6.70
2015,03,08,01,46,6.60
2015,03,08,01,47,6.60
2015,03,08,01,48,6.60
2015,03,08,01,49,6.60
2015,03,08,01,50,6.60
2015,03,08,01,51,6.60
2015,03,08,01,52,6.60
2015,03,08,01,53,6.50
2015,03,08,01,54,6.50
2015,03,08,01,55,6.50
2015,03,08,01,56,6.40
2015,03,08,01,57,6.40
2015,03,08,01,58,6.40
2015,03,08,01,59,6.40
2015,03,08,03,00,6.30
2015,03,08,03,01,6.30
2015,03,08,03,02,6.30
2015,03,08,03,03,6.30
2015,03,08,03,04,6.30
2015,03,08,03,05,6.30
2015,03,08,03,06,6.30
2015,03,08,03,07,6.30
2015,03,08,03,08,6.30
2015,03,08,03,09,6.30
2015,03,08,03,10,6.30
2015,03,08,03,11,6.20
2015,03,08,03,12,6.20
2015,03,08,03,13,6.20
2015,03,08,03,14,6.20
2015,03,08,03,15,6.20
2015,03,08,03,16,6.20
2015,03,08,03,17,6.20
2015,03,08,03,18,6.20
2015,03,08,03,19,6.10
2015,03,08,03,20,6.10
2015,03,08,03,21,6.20
2015,03,08,03,22,6.20
2015,03,08,03,23,6.20
2015,03,08,03,24,6.20
2015,03,08,03,25,6.10
2015,03,08,03,26,6.10
2015,03,08,03,27,6.10
2015,03,08,03,28,6.10
2015,03,08,03,29,6.10
2015,03,08,03,30,6.10
2015,03,08,03,31,6.10
2015,03,08,03,32,6.10
2015,03,08,03,33,6.10
2015,03,08,03,34,6.10
2015,03,08,03,35,6.10
2015,03,08,03,36,6.10
2015,03,08,03,37,6.10
2015,03,08,03,38,6.10
2015,03,08,03,39,6.00
2015,03,08,03,40,6.00
2015,03,08,03,41,6.10
2015,03,08,03,42,6.00
2015,03,08,03,43,6.10
2015,03,08,03,44,6.10
2015,03,08,03,45,6.00
2015,03,08,03,46,6.00
2015,03,08,03,47,6.00
2015,03,08,03,48,6.00
2015,03,08,03,49,6.00
2015,03,08,03,50,5.90
2015,03,08,03,51,5.90
2015,03,08,03,52,5.90
2015,03,08,03,53,5.90
2015,03,08,03,54,5.90
2015,03,08,03,55,5.90
2015,03,08,03,56,5.90
2015,03,08,03,57,5.90
2015,03,08,03,58,5.90
2015,03,08,03,59,5.90
2015,03,08,04,00,5.90
2015,03,08,04,01,5.90
2015,03,08,04,02,5.90
2015,03,08,04,03,5.90
2015,03,08,04,04,5.90
2015,03,08,04,05,5.90
2015,03,08,04,06,5.90
2015,03,08,04,07,5.90
2015,03,08,04,08,5.90
2015,03,08,04,09,5.90
2015,03,08,04,10,5.80
2015,03,08,04,11,5.80
2015,03,08,04,12,5.80
2015,03,08,04,13,5.80
2015,03,08,04,14,5.80
2015,03,08,04,15,5.70
2015,03,08,04,16,5.70
2015,03,08,04,17,5.70
2015,03,08,04,18,5.70
2015,03,08,04,19,5.60
2015,03,08,04,20,5.60
2015,03,08,04,21,5.50
2015,03,08,04,22,5.50
2015,03,08,04,23,5.50
2015,03,08,04,24,5.50
2015,03,08,04,25,5.60
2015,03,08,04,26,5.60
2015,03,08,04,27,5.60
2015,03,08,04,28,5.60
2015,03,08,04,29,5.60
2015,03,08,04,30,5.60
2015,03,08,04,31,5.60
2015,03,08,04,32,5.60
2015,03,08,04,33,5.60
2015,03,08,04,34,5.60
2015,03,08,04,35,5.60
2015,03,08,04,36,5.70
2015,03,08,04,37,5.70
2015,03,08,04,38,5.70
2015,03,08,04,39,5.70
2015,03,08,04,40,5.70
2015,03,08,04,41,5.70
2015,03,08,04,42,5.80
2015,03,08,04,43,5.80
2015,03,08,04,44,5.80
2015,03,08,04,45,5.80
2015,03,08,04,46,5.80
2015,03,08,04,47,5.80
2015,03,08,04,48,5.80
2015,03,08,04,49,5.80
2015,03,08,04,50,5.80
2015,03,08,04,51,5.80
2015,03,08,04,52,5.80
2015,03,08,04,53,5.80
2015,03,08,04,54,5.80
2015,03,08,04,55,5.80
2015,03,08,04,56,5.80
2015,03,08,04,57,5.90
2015,03,08,04,58,5.90
2015,03,08,04,59,5.90
2015,03,08,05,00,5.90
2015,03,08,05,01,5.90
2015,03,08,05,02,5.90
2015,03,08,05,03,5.90
2015,03,08,05,04,5.90
2015,03,08,05,05,5.90
2015,03,08,05,06,5.90
2015,03,08,05,07,5.90
2015,03,08,05,08,5.90
2015,03,08,05,09,5.90
2015,03,08,05,10,5.90
2015,03,08,05,11,5.80
2015,03,08,05,12,5.80
2015,03,08,05,13,5.80
2015,03,08,05,14,5.80
2015,03,08,05,15,5.80
2015,03,08,05,16,5.80
2015,03,08,05,17,5.80
2015,03,08,05,18,5.70
2015,03,08,05,19,5.70
2015,03,08,05,20,5.70
2015,03,08,05,21,5.70
2015,03,08,05,22,5.60
2015,03,08,05,23,5.60
2015,03,08,05,24,5.60
2015,03,08,05,25,5.60
2015,03,08,05,26,5.60
2015,03,08,05,27,5.50
2015,03,08,05,28,5.50
2015,03,08,05,29,5.50
2015,03,08,05,30,5.50
2015,03,08,05,31,5.50
2015,03,08,05,32,5.40
2015,03,08,05,33,5.40
2015,03,08,05,34,5.40
2015,03,08,05,35,5.40
2015,03,08,05,36,5.40
2015,03,08,05,37,5.40
2015,03,08,05,38,5.40
2015,03,08,05,39,5.40
2015,03,08,05,40,5.40
2015,03,08,05,41,5.40
2015,03,08,05,42,5.40
2015,03,08,05,43,5.40
2015,03,08,05,44,5.40
2015,03,08,05,45,5.40
2015,03,08,05,46,5.30
2015,03,08,05,47,5.30
2015,03,08,05,48,5.30
2015,03,08,05,49,5.30
2015,03,08,05,50,5.30
2015,03,08,05,51,5.30
2015,03,08,05,52,5.30
2015,03,08,05,53,5.30
2015,03,08,05,54,5.30
2015,03,08,05,55,5.30
2015,03,08,05,56,5.30
2015,03,08,05,57,5.30
2015,03,08,05,58,5.20
2015,03,08,05,59,5.20
2015,03,08,06,00,5.20
2015,03,08,06,01,5.20
2015,03,08,06,02,5.20
2015,03,08,06,03,5.20
2015,03,08,06,04,5.20
2015,03,08,06,05,5.10
2015,03,08,06,06,5.10
2015,03,08,06,07,5.10
2015,03,08,06,08,5.10
2015,03,08,06,09,5.00
2015,03,08,06,10,5.00
2015,03,08,06,11,5.00
2015,03,08,06,12,4.90
2015,03,08,06,13,4.90
2015,03,08,06,14,4.90
2015,03,08,06,15,4.90
2015,03,08,06,16,4.90
2015,03,08,06,17,4.90
2015,03,08,06,18,4.90
2015,03,08,06,19,4.90
2015,03,08,06,20,4.90
2015,03,08,06,21,4.90
2015,03,08,06,22,4.90
2015,03,08,06,23,4.90
2015,03,08,06,24,4.90
2015,03,08,06,25,4.90
2015,03,08,06,26,4.90
2015,03,08,06,27,4.90
2015,03,08,06,28,4.90
2015,03,08,06,29,4.90
2015,03,08,06,30,4.90
2015,03,08,06,31,4.80
2015,03,08,06,32,4.80
2015,03,08,06,33,4.80
2015,03,08,06,34,4.80
2015,03,08,06,35,4.80
2015,03,08,06,36,4.80
2015,03,08,06,37,4.70
2015,03,08,06,38,4.70
2015,03,08,06,39,4.70
2015,03,08,06,40,4.70
2015,03,08,06,41,4.60
2015,03,08,06,42,4.70
2015,03,08,06,43,4.70
2015,03,08,06,44,4.70
2015,03,08,06,45,4.70
2015,03,08,06,46,4.70
2015,03,08,06,47,4.70
2015,03,08,06,48,4.60
2015,03,08,06,49,4.60
2015,03,08,06,50,4.60
2015,03,08,06,51,4.60
2015,03,08,06,52,4.60
2015,03,08,06,53,4.60
2015,03,08,06,54,4.60
2015,03,08,06,55,4.60
2015,03,08,06,56,4.60
2015,03,08,06,57,4.60
2015,03,08,06,58,4.60
2015,03,08,06,59,4.60
2015,03,08,07,00,4.60
2015,03,08,07,01,4.60
2015,03,08,07,02,4.60
2015,03,08,07,03,4.60
2015,03,08,07,04,4.50
2015,03,08,07,05,4.50
2015,03,08,07,06,4.50
2015,03,08,07,07,4.50
2015,03,08,07,08,4.50
2015,03,08,07,09,4.50
2015,03,08,07,10,4.50
2015,03,08,07,11,4.50
2015,03,08,07,12,4.40
2015,03,08,07,13,4.40
2015,03,08,07,14,4.40
2015,03,08,07,15,4.40
2015,03,08,07,16,4.40
2015,03,08,07,17,4.40
2015,03,08,07,18,4.40
2015,03,08,07,19,4.40
2015,03,08,07,20,4.40
2015,03,08,07,21,4.40
2015,03,08,07,22,4.40
2015,03,08,07,23,4.40
2015,03,08,07,24,4.40
2015,03,08,07,25,4.40
2015,03,08,07,26,4.40
2015,03,08,07,27,4.40
2015,03,08,07,28,4.30
2015,03,08,07,29,4.30
2015,03,08,07,30,4.30
2015,03,08,07,31,4.30
2015,03,08,07,32,4.30
2015,03,08,07,33,4.30
2015,03,08,07,34,4.30
2015,03,08,07,35,4.30
2015,03,08,07,36,4.40
2015,03,08,07,37,4.40
2015,03,08,07,38,4.40
2015,03,08,07,39,4.40
2015,03,08,07,40,4.40
2015,03,08,07,41,4.40
2015,03,08,07,42,4.40
2015,03,08,07,43,4.30
2015,03,08,07,44,4.30
2015,03,08,07,45,4.30
2015,03,08,07,46,4.30
2015,03,08,07,47,4.30
2015,03,08,07,48,4.30
2015,03,08,07,49,4.30
2015,03,08,07,50,4.40
2015,03,08,07,51,4.40
2015,03,08,07,52,4.40
2015,03,08,07,53,4.40
2015,03,08,07,54,4.40
2015,03,08,07,55,4.40
2015,03,08,07,56,4.30
2015,03,08,07,57,4.30
2015,03,08,07,58,4.30
2015,03,08,07,59,4.30
2015,03,08,08,00,4.30
2015,03,08,08,01,4.30
2015,03,08,08,02,4.20
2015,03,08,08,03,4.20
2015,03,08,08,04,4.20
2015,03,08,08,05,4.20
2015,03,08,08,06,4.20
2015,03,08,08,07,4.20
2015,03,08,08,08,4.20
2015,03,08,08,09,4.20
2015,03,08,08,10,4.20
2015,03,08,08,11,4.20
2015,03,08,08,12,4.20
2015,03,08,08,13,4.20
2015,03,08,08,14,4.20
2015,03,08,08,15,4.20
2015,03,08,08,16,4.20
2015,03,08,08,17,4.20
2015,03,08,08,18,4.20
2015,03,08,08,19,4.20
2015,03,08,08,20,4.20
2015,03,08,08,21,4.20
2015,03,08,08,22,4.20
2015,03,08,08,23,4.20
2015,03,08,08,24,4.20
2015,03,08,08,25,4.30
2015,03,08,08,26,4.30
2015,03,08,08,27,4.40
2015,03,08,08,28,4.40
2015,03,08,08,29,4.50
2015,03,08,08,30,4.50
2015,03,08,08,31,4.60
2015,03,08,08,32,4.60
2015,03,08,08,33,4.70
2015,03,08,08,34,4.70
2015,03,08,08,35,4.70
2015,03,08,08,36,4.80
2015,03,08,08,37,4.80
2015,03,08,08,38,4.80
2015,03,08,08,39,4.80
2015,03,08,08,40,4.90
2015,03,08,08,41,4.90
2015,03,08,08,42,4.90
2015,03,08,08,43,4.90
2015,03,08,08,44,5.00
2015,03,08,08,45,5.00
2015,03,08,08,46,5.00
2015,03,08,08,47,5.00
2015,03,08,08,48,5.10
2015,03,08,08,49,5.10
2015,03,08,08,50,5.10
2015,03,08,08,51,5.10
2015,03,08,08,52,5.10
2015,03,08,08,53,5.20
2015,03,08,08,54,5.20
2015,03,08,08,55,5.20
2015,03,08,08,56,5.20
2015,03,08,08,57,5.20
2015,03,08,08,58,5.20
2015,03,08,08,59,5.30
2015,03,08,09,00,5.30
2015,03,08,09,01,5.30
2015,03,08,09,02,5.30
2015,03,08,09,03,5.30
2015,03,08,09,04,5.30
2015,03,08,09,05,5.40
2015,03,08,09,06,5.40
2015,03,08,09,07,5.40
2015,03,08,09,08,5.40
2015,03,08,09,09,5.40
2015,03,08,09,10,5.40
2015,03,08,09,11,5.50
2015,03,08,09,12,5.50
2015,03,08,09,13,5.50
2015,03,08,09,14,5.50
2015,03,08,09,15,5.60
2015,03,08,09,16,5.60
2015,03,08,09,17,5.60
2015,03,08,09,18,5.60
2015,03,08,09,19,5.60
2015,03,08,09,20,5.60
2015,03,08,09,21,5.70
2015,03,08,09,22,5.70
2015,03,08,09,23,5.70
2015,03,08,09,24,5.70
2015,03,08,09,25,5.70
2015,03,08,09,26,5.70
2015,03,08,09,27,5.70
2015,03,08,09,28,5.80
2015,03,08,09,29,5.80
2015,03,08,09,30,5.80
2015,03,08,09,31,5.80
2015,03,08,09,32,5.80
2015,03,08,09,33,5.80
2015,03,08,09,34,5.90
2015,03,08,09,35,5.90
2015,03,08,09,36,5.90
2015,03,08,09,37,5.90
2015,03,08,09,38,6.00
2015,03,08,09,39,6.00
2015,03,08,09,40,6.00
2015,03,08,09,41,6.10
2015,03,08,09,42,6.10
2015,03,08,09,43,6.10
2015,03,08,09,44,6.10
2015,03,08,09,45,6.20
2015,03,08,09,46,6.20
2015,03,08,09,47,6.20
2015,03,08,09,48,6.20
2015,03,08,09,49,6.20
2015,03,08,09,50,6.20
2015,03,08,09,51,6.20
2015,03,08,09,52,6.20
2015,03,08,09,53,6.20
2015,03,08,09,54,6.20
2015,03,08,09,55,6.30
2015,03,08,09,56,6.30
2015,03,08,09,57,6.30
2015,03,08,09,58,6.30
2015,03,08,09,59,6.30
2015,03,08,10,00,6.30
2015,03,08,10,01,6.40
2015,03,08,10,02,6.40
2015,03,08,10,03,6.40
2015,03,08,10,04,6.40
2015,03,08,10,05,6.40
2015,03,08,10,06,6.40
2015,03,08,10,07,6.40
2015,03,08,10,08,6.40
2015,03,08,10,09,6.40
2015,03,08,10,10,6.50
2015,03,08,10,11,6.50
2015,03,08,10,12,6.50
2015,03,08,10,13,6.50
2015,03,08,10,14,6.50
2015,03,08,10,15,6.50
2015,03,08,10,16,6.50
2015,03,08,10,17,6.60
2015,03,08,10,18,6.60
2015,03,08,10,19,6.60
2015,03,08,10,20,6.60
2015,03,08,10,21,6.60
2015,03,08,10,22,6.70
2015,03,08,10,23,6.70
2015,03,08,10,24,6.70
2015,03,08,10,25,6.70
2015,03,08,10,26,6.70
2015,03,08,10,27,6.70
2015,03,08,10,28,6.70
2015,03,08,10,29,6.70
2015,03,08,10,30,6.70
2015,03,08,10,31,6.70
2015,03,08,10,32,6.70
2015,03,08,10,33,6.70
2015,03,08,10,34,6.70
2015,03,08,10,35,6.80
2015,03,08,10,36,6.80
2015,03,08,10,37,6.80
2015,03,08,10,38,6.80
2015,03,08,10,39,6.90
2015,03,08,10,40,6.90
2015,03,08,10,41,6.90
2015,03,08,10,42,7.00
2015,03,08,10,43,7.00
2015,03,08,10,44,7.10
2015,03,08,10,45,7.20
2015,03,08,10,46,7.20
2015,03,08,10,47,7.20
2015,03,08,10,48,7.30
2015,03,08,10,49,7.30
2015,03,08,10,50,7.30
2015,03,08,10,51,7.30
2015,03,08,10,52,7.30
2015,03,08,10,53,7.30
2015,03,08,10,54,7.40
2015,03,08,10,55,7.40
2015,03,08,10,56,7.40
2015,03,08,10,57,7.50
2015,03,08,10,58,7.50
2015,03,08,10,59,7.60
2015,03,08,11,00,7.60
2015,03,08,11,01,7.70
2015,03,08,11,02,7.70
2015,03,08,11,03,7.70
2015,03,08,11,04,7.70
2015,03,08,11,05,7.80
2015,03,08,11,06,7.80
2015,03,08,11,07,7.80
2015,03,08,11,08,7.90
2015,03,08,11,09,7.90
2015,03,08,11,10,7.90
2015,03,08,11,11,8.00
2015,03,08,11,12,8.00
2015,03,08,11,13,8.10
2015,03,08,11,14,8.10
2015,03,08,11,15,8.20
2015,03,08,11,16,8.20
2015,03,08,11,17,8.20
2015,03,08,11,18,8.30
2015,03,08,11,19,8.30
2015,03,08,11,20,8.30
2015,03,08,11,21,8.40
2015,03,08,11,22,8.40
2015,03,08,11,23,8.40
2015,03,08,11,24,8.50
2015,03,08,11,25,8.50
2015,03,08,11,26,8.50
2015,03,08,11,27,8.60
2015,03,08,11,28,8.60
2015,03,08,11,29,8.70
2015,03,08,11,30,8.70
2015,03,08,11,31,8.70
2015,03,08,11,32,8.70
2015,03,08,11,33,8.80
2015,03,08,11,34,8.80
2015,03,08,11,35,8.90
2015,03,08,11,36,9.00
2015,03,08,11,37,9.00
2015,03,08,11,38,9.10
2015,03,08,11,39,9.10
2015,03,08,11,40,9.10
2015,03,08,11,41,9.10
2015,03,08,11,42,9.10
2015,03,08,11,43,9.10
2015,03,08,11,44,9.20
2015,03,08,11,45,9.20
2015,03,08,11,46,9.20
2015,03,08,11,47,9.20
2015,03,08,11,48,9.20
2015,03,08,11,49,9.20
2015,03,08,11,50,9.30
2015,03,08,11,51,9.30
2015,03,08,11,52,9.30
2015,03,08,11,53,9.30
2015,03,08,11,54,9.30
2015,03,08,11,55,9.30
2015,03,08,11,56,9.30
2015,03,08,11,57,9.30
2015,03,08,11,58,9.30
2015,03,08,11,59,9.30
2015,03,08,12,00,9.40
2015,03,08,12,01,9.40
2015,03,08,12,02,9.50
2015,03,08,12,03,9.50
2015,03,08,12,04,9.60
2015,03,08,12,05,9.70
2015,03,08,12,06,9.70
2015,03,08,12,07,9.80
2015,03,08,12,08,9.80
2015,03,08,12,09,9.90
2015,03,08,12,10,9.90
2015,03,08,12,11,10.00
2015,03,08,12,12,10.00
2015,03,08,12,13,10.10
2015,03,08,12,14,10.10
2015,03,08,12,15,10.10
2015,03,08,12,16,10.20
2015,03,08,12,17,10.20
2015,03,08,12,18,10.20
2015,03,08,12,19,10.30
2015,03,08,12,20,10.30
2015,03,08,12,21,10.30
2015,03,08,12,22,10.30
2015,03,08,12,23,10.30
2015,03,08,12,24,10.30
2015,03,08,12,25,10.30
2015,03,08,12,26,10.30
2015,03,08,12,27,10.20
2015,03,08,12,28,10.10
2015,03,08,12,29,10.10
2015,03,08,12,30,10.10
2015,03,08,12,31,10.00
2015,03,08,12,32,10.00
2015,03,08,12,33,10.00
2015,03,08,12,34,10.00
2015,03,08,12,35,10.00
2015,03,08,12,36,10.10
2015,03,08,12,37,10.20
2015,03,08,12,38,10.30
2015,03,08,12,39,10.30
2015,03,08,12,40,10.40
2015,03,08,12,41,10.40
2015,03,08,12,42,10.50
2015,03,08,12,43,10.60
2015,03,08,12,44,10.60
2015,03,08,12,45,10.70
2015,03,08,12,46,10.70
2015,03,08,12,47,10.80
2015,03,08,12,48,10.80
2015,03,08,12,49,10.80
2015,03,08,12,50,10.80
2015,03,08,12,51,10.70
2015,03,08,12,52,10.70
2015,03,08,12,53,10.70
2015,03,08,12,54,10.80
2015,03,08,12,55,10.80
2015,03,08,12,56,10.80
2015,03,08,12,57,10.90
2015,03,08,12,58,10.90
2015,03,08,12,59,10.90
2015,03,08,13,00,11.00
2015,03,08,13,01,11.00
2015,03,08,13,02,11.10
2015,03,08,13,03,11.10
2015,03,08,13,04,11.10
2015,03,08,13,05,11.10
2015,03,08,13,06,11.10
2015,03,08,13,07,11.10
2015,03,08,13,08,11.20
2015,03,08,13,09,11.20
2015,03,08,13,10,11.20
2015,03,08,13,11,11.20
2015,03,08,13,12,11.20
2015,03,08,13,13,11.20
2015,03,08,13,14,11.30
2015,03,08,13,15,11.30
2015,03,08,13,16,11.30
2015,03,08,13,17,11.30
2015,03,08,13,18,11.40
2015,03,08,13,19,11.40
2015,03,08,13,20,11.40
2015,03,08,13,21,11.30
2015,03,08,13,22,11.30
2015,03,08,13,23,11.30
2015,03,08,13,24,11.30
2015,03,08,13,25,11.30
2015,03,08,13,26,11.30
2015,03,08,13,27,11.30
2015,03,08,13,28,11.30
2015,03,08,13,29,11.30
2015,03,08,13,30,11.30
2015,03,08,13,31,11.30
2015,03,08,13,32,11.30
2015,03,08,13,33,11.30
2015,03,08,13,34,11.20
2015,03,08,13,35,11.20
2015,03,08,13,36,11.10
2015,03,08,13,37,11.00
2015,03,08,13,38,11.00
2015,03,08,13,39,11.00
2015,03,08,13,40,11.00
2015,03,08,13,41,11.00
2015,03,08,13,42,11.00
2015,03,08,13,43,11.10
2015,03,08,13,44,11.00
2015,03,08,13,45,11.00
2015,03,08,13,46,11.00
2015,03,08,13,47,11.00
2015,03,08,13,48,11.00
2015,03,08,13,49,11.00
2015,03,08,13,50,11.10
2015,03,08,13,51,11.10
2015,03,08,13,52,11.20
2015,03,08,13,53,11.30
2015,03,08,13,54,11.30
2015,03,08,13,55,11.30
2015,03,08,13,56,11.30
2015,03,08,13,57,11.30
2015,03,08,13,58,11.30
2015,03,08,13,59,11.40
2015,03,08,14,00,11.40
2015,03,08,14,01,11.40
2015,03,08,14,02,11.50
2015,03,08,14,03,11.60
2015,03,08,14,04,11.70
2015,03,08,14,05,11.70
2015,03,08,14,06,11.80
2015,03,08,14,07,11.80
2015,03,08,14,08,11.80
2015,03,08,14,09,11.90
2015,03,08,14,10,11.90
2015,03,08,14,11,11.90
2015,03,08,14,12,11.90
2015,03,08,14,13,11.80
2015,03,08,14,14,11.80
2015,03,08,14,15,11.80
2015,03,08,14,16,11.80
2015,03,08,14,17,11.80
2015,03,08,14,18,11.80
2015,03,08,14,19,11.80
2015,03,08,14,20,11.80
2015,03,08,14,21,11.70
2015,03,08,14,22,11.70
2015,03,08,14,23,11.70
2015,03,08,14,24,11.70
2015,03,08,14,25,11.70
2015,03,08,14,26,11.60
2015,03,08,14,27,11.60
2015,03,08,14,28,11.70
2015,03,08,14,29,11.70
2015,03,08,14,30,11.70
2015,03,08,14,31,11.70
2015,03,08,14,32,11.80
2015,03,08,14,33,11.80
2015,03,08,14,34,11.80
2015,03,08,14,35,11.80
2015,03,08,14,36,11.80
2015,03,08,14,37,11.80
2015,03,08,14,38,11.80
2015,03,08,14,39,11.80
2015,03,08,14,40,11.80
2015,03,08,14,41,11.90
2015,03,08,14,42,11.90
2015,03,08,14,43,11.90
2015,03,08,14,44,11.90
2015,03,08,14,45,11.90
2015,03,08,14,46,11.90
2015,03,08,14,47,11.90
2015,03,08,14,48,11.90
2015,03,08,14,49,11.90
2015,03,08,14,50,11.90
2015,03,08,14,51,12.00
2015,03,08,14,52,12.00
2015,03,08,14,53,11.90
2015,03,08,14,54,11.90
2015,03,08,14,55,11.90
2015,03,08,14,56,11.90
2015,03,08,14,57,11.80
2015,03,08,14,58,11.80
2015,03,08,14,59,11.70
2015,03,08,15,00,11.70
2015,03,08,15,01,11.80
2015,03,08,15,02,11.80
2015,03,08,15,03,11.90
2015,03,08,15,04,11.90
2015,03,08,15,05,12.00
2015,03,08,15,06,12.00
2015,03,08,15,07,12.10
2015,03,08,15,08,12.10
2015,03,08,15,09,12.10
2015,03,08,15,10,12.10
2015,03,08,15,11,12.10
2015,03,08,15,12,12.10
2015,03,08,15,13,12.10
2015,03,08,15,14,12.10
2015,03,08,15,15,12.10
2015,03,08,15,16,12.10
2015,03,08,15,17,12.00
2015,03,08,15,18,11.90
2015,03,08,15,19,11.90
2015,03,08,15,20,11.90
2015,03,08,15,21,11.90
2015,03,08,15,22,12.00
2015,03,08,15,23,11.90
2015,03,08,15,24,11.90
2015,03,08,15,25,11.90
2015,03,08,15,26,11.90
2015,03,08,15,27,11.80
2015,03,08,15,28,11.80
2015,03,08,15,29,11.80
2015,03,08,15,30,11.70
2015,03,08,15,31,11.70
2015,03,08,15,32,11.70
2015,03,08,15,33,11.60
2015,03,08,15,34,11.60
2015,03,08,15,35,11.60
2015,03,08,15,36,11.60
2015,03,08,15,37,11.60
2015,03,08,15,38,11.60
2015,03,08,15,39,11.60
2015,03,08,15,40,11.60
2015,03,08,15,41,11.70
2015,03,08,15,42,11.70
2015,03,08,15,43,11.70
2015,03,08,15,44,11.70
2015,03,08,15,45,11.70
2015,03,08,15,46,11.70
2015,03,08,15,47,11.60
2015,03,08,15,48,11.60
2015,03,08,15,49,11.60
2015,03,08,15,50,11.60
2015,03,08,15,51,11.60
2015,03,08,15,52,11.60
2015,03,08,15,53,11.60
2015,03,08,15,54,11.60
2015,03,08,15,55,11.60
2015,03,08,15,56,11.60
2015,03,08,15,57,11.50
2015,03,08,15,58,11.50
2015,03,08,15,59,11.50
2015,03,08,16,00,11.50
2015,03,08,16,01,11.50
2015,03,08,16,02,11.50
2015,03,08,16,03,11.50
2015,03,08,16,04,11.50
2015,03,08,16,05,11.40
2015,03,08,16,06,11.40
2015,03,08,16,07,11.40
2015,03,08,16,08,11.40
2015,03,08,16,09,11.30
2015,03,08,16,10,11.30
2015,03,08,16,11,11.30
2015,03,08,16,12,11.30
2015,03,08,16,13,11.30
2015,03,08,16,14,11.30
2015,03,08,16,15,11.30
2015,03,08,16,16,11.30
2015,03,08,16,17,11.30
2015,03,08,16,18,11.20
2015,03,08,16,19,11.20
2015,03,08,16,20,11.20
2015,03,08,16,21,11.20
2015,03,08,16,22,11.20
2015,03,08,16,23,11.20
2015,03,08,16,24,11.10
2015,03,08,16,25,11.10
2015,03,08,16,26,11.10
2015,03,08,16,27,11.10
2015,03,08,16,28,11.10
2015,03,08,16,29,11.10
2015,03,08,16,30,11.10
2015,03,08,16,31,11.10
2015,03,08,16,32,11.20
2015,03,08,16,33,11.20
2015,03,08,16,34,11.20
2015,03,08,16,35,11.30
2015,03,08,16,36,11.30
2015,03,08,16,37,11.30
2015,03,08,16,38,11.30
2015,03,08,16,39,11.40
2015,03,08,16,40,11.40
2015,03,08,16,41,11.40
2015,03,08,16,42,11.40
2015,03,08,16,43,11.40
2015,03,08,16,44,11.40
2015,03,08,16,45,11.30
2015,03,08,16,46,11.30
2015,03,08,16,47,11.30
2015,03,08,16,48,11.30
2015,03,08,16,49,11.20
2015,03,08,16,50,11.20
2015,03,08,16,51,11.20
2015,03,08,16,52,11.10
2015,03,08,16,53,11.10
2015,03,08,16,54,11.10
2015,03,08,16,55,11.10
2015,03,08,16,56,11.10
2015,03,08,16,57,11.10
2015,03,08,16,58,11.10
2015,03,08,16,59,11.10
2015,03,08,17,00,11.10
2015,03,08,17,01,11.10
2015,03,08,17,02,11.10
2015,03,08,17,03,11.10
2015,03,08,17,04,11.10
2015,03,08,17,05,11.10
2015,03,08,17,06,11.10
2015,03,08,17,07,11.00
2015,03,08,17,08,11.00
2015,03,08,17,09,11.00
2015,03,08,17,10,10.90
2015,03,08,17,11,11.00
2015,03,08,17,12,10.90
2015,03,08,17,13,10.90
2015,03,08,17,14,10.90
2015,03,08,17,15,10.90
2015,03,08,17,16,10.90
2015,03,08,17,17,10.90
2015,03,08,17,18,10.90
2015,03,08,17,19,10.90
2015,03,08,17,20,10.90
2015,03,08,17,21,10.80
2015,03,08,17,22,10.80
2015,03,08,17,23,10.80
2015,03,08,17,24,10.80
2015,03,08,17,25,10.90
2015,03,08,17,26,10.90
2015,03,08,17,27,10.90
2015,03,08,17,28,10.90
2015,03,08,17,29,10.90
2015,03,08,17,30,10.90
2015,03,08,17,31,10.90
2015,03,08,17,32,10.90
2015,03,08,17,33,10.90
2015,03,08,17,34,11.00
2015,03,08,17,35,11.00
2015,03,08,17,36,11.00
2015,03,08,17,37,10.90
2015,03,08,17,38,10.90
2015,03,08,17,39,10.90
2015,03,08,17,40,10.90
2015,03,08,17,41,11.00
2015,03,08,17,42,11.00
2015,03,08,17,43,11.00
2015,03,08,17,44,11.00
2015,03,08,17,45,11.00
2015,03,08,17,46,11.00
2015,03,08,17,47,11.00
2015,03,08,17,48,11.10
2015,03,08,17,49,11.10
2015,03,08,17,50,11.10
2015,03,08,17,51,11.10
2015,03,08,17,52,11.10
2015,03,08,17,53,11.10
2015,03,08,17,54,11.10
2015,03,08,17,55,11.10
2015,03,08,17,56,11.10
2015,03,08,17,57,11.10
2015,03,08,17,58,11.10
2015,03,08,17,59,11.10
2015,03,08,18,00,11.10
2015,03,08,18,01,11.10
2015,03,08,18,02,11.00
2015,03,08,18,03,11.00
2015,03,08,18,04,11.00
2015,03,08,18,05,11.00
2015,03,08,18,06,10.90
2015,03,08,18,07,10.90
2015,03,08,18,08,10.90
2015,03,08,18,09,10.90
2015,03,08,18,10,10.90
2015,03,08,18,11,10.90
2015,03,08,18,12,10.90
2015,03,08,18,13,10.90
2015,03,08,18,14,10.90
2015,03,08,18,15,10.80
2015,03,08,18,16,10.80
2015,03,08,18,17,10.80
2015,03,08,18,18,10.80
2015,03,08,18,19,10.80
2015,03,08,18,20,10.80
2015,03,08,18,21,10.80
2015,03,08,18,22,10.80
2015,03,08,18,23,10.80
2015,03,08,18,24,10.80
2015,03,08,18,25,10.80
2015,03,08,18,26,10.70
2015,03,08,18,27,10.70
2015,03,08,18,28,10.70
2015,03,08,18,29,10.70
2015,03,08,18,30,10.70
2015,03,08,18,31,10.70
2015,03,08,18,32,10.70
2015,03,08,18,33,10.60
2015,03,08,18,34,10.60
2015,03,08,18,35,10.60
2015,03,08,18,36,10.50
2015,03,08,18,37,10.50
2015,03,08,18,38,10.40
2015,03,08,18,39,10.40
2015,03,08,18,40,10.30
2015,03,08,18,41,10.20
2015,03,08,18,42,10.20
2015,03,08,18,43,10.10
2015,03,08,18,44,10.10
2015,03,08,18,45,10.00
2015,03,08,18,46,10.00
2015,03,08,18,47,9.90
2015,03,08,18,48,9.90